Flag for Finland Weather past 2 weeks in Vaasa, Finland

Now
21 °F

Overcast.


Feels Like: 15 °F
Forecast: 18 / 20 °F
Wind: 5 mph from East

Location: Vaasa Airport

Current Time: Dec 23, 2014 at 6:05:19 AM

Latest Report: Dec 23, 2014 at 5:20 AM


Visibility: N/A

Pressure: 29.27 "Hg

Humidity: 86%

Dew point: 18 °F

Location of VaasaLocation

Historic Weather in Vaasa — Graph

°F

Vaasa temperature yesterday

Maximum temperature yesterday: 28 °F (at 12:20 AM)
Minimum temperature yesterday: 18 °F (at 8:20 PM)
Average temperature yesterday: 24 °F

Past Weeks' High & Low Weather Summary

 TemperatureHumidityPressure
High41 °F (Dec 8, 4:50 AM)100% (Dec 9, 7:50 PM)29.83 "Hg (Dec 9, 7:50 PM)
Low18 °F (Dec 22, 8:20 PM)49% (Dec 22, 9:20 PM)28.80 "Hg (Dec 19, 10:50 PM)
Average32 °F93%29.31 "Hg
* Reported Dec 8 4:50 AM — Dec 23 4:50 AM, Vaasa, Weather by CustomWeather, © 2014

Note: Actual official high and low records may vary slightly from our data, if they occured in-between our weather recording intervals... More about our weather records

Advertising

Vaasa weather history for previous 24 hours

 ConditionsComfort  
Time TempWeatherWind HumidityBarometerVisibility
4:50 AM
Dec 23
21 °FOvercast.5 mph86%29.27 "HgN/A
4:20 AM21 °FOvercast.5 mph86%29.27 "HgN/A
3:50 AM21 °FLow clouds.5 mph86%29.27 "HgN/A
3:20 AM21 °FLow clouds.5 mph86%29.27 "HgN/A
2:50 AM21 °FLow clouds.5 mph86%29.27 "HgN/A
2:20 AM21 °FLow clouds.5 mph86%29.27 "HgN/A
1:20 AM21 °FLow clouds.3 mph86%29.27 "HgN/A
12:20 AM19 °FLow clouds.8 mph93%29.27 "HgN/A
11:20 PM
Dec 22
19 °FLow clouds.7 mphN/A29.27 "HgN/A
10:50 PM19 °FLow clouds.8 mph93%29.27 "HgN/A
10:20 PM19 °FLow clouds.8 mphN/A29.27 "HgN/A
9:50 PM19 °FLow clouds.7 mphN/A29.24 "HgN/A
9:20 PM19 °FLow clouds.8 mph49%29.24 "HgN/A
8:50 PM18 °FLow clouds.6 mph100%29.24 "HgN/A
8:20 PM18 °FPassing clouds.8 mph93%29.24 "HgN/A
7:50 PM19 °FPassing clouds.6 mph93%29.24 "HgN/A
7:20 PM19 °FPassing clouds.8 mph93%29.24 "HgN/A
6:50 PM21 °FPassing clouds.7 mph93%29.24 "HgN/A
6:20 PM23 °FPassing clouds.6 mph93%29.24 "HgN/A
5:50 PM25 °FOvercast.6 mph93%29.24 "HgN/A
5:20 PM25 °FLow clouds.6 mph100%29.24 "HgN/A
4:50 PM27 °FLow clouds.6 mph93%29.24 "HgN/A
4:20 PM27 °FOvercast.5 mph93%29.24 "HgN/A
3:50 PM27 °FLow clouds.5 mph93%29.24 "HgN/A
3:20 PM27 °FOvercast.6 mph93%29.24 "HgN/A
2:50 PM27 °FOvercast.5 mph93%29.27 "HgN/A
2:20 PM27 °FOvercast.2 mph93%29.27 "HgN/A
1:50 PM25 °FOvercast.2 mph100%29.27 "HgN/A
1:20 PM25 °FOvercast.5 mph100%29.27 "HgN/A
12:50 PM25 °FOvercast.3 mph100%29.27 "HgN/A
12:20 PM25 °FOvercast.5 mph100%29.30 "HgN/A
11:50 AM25 °FOvercast.2 mph100%29.30 "HgN/A
10:20 AM25 °FOvercast.1 mph93%29.33 "HgN/A
9:50 AM25 °FOvercast.2 mph93%29.33 "HgN/A
8:50 AM23 °FLight snow. Overcast.2 mph100%29.33 "HgN/A
8:20 AM23 °FLight snow. Overcast.2 mph100%29.33 "HgN/A
7:50 AM23 °FOvercast.2 mph93%29.33 "HgN/A
7:20 AM21 °FOvercast.1 mph100%29.33 "HgN/A
6:50 AM21 °FOvercast.1 mph100%29.36 "HgN/A
6:20 AM21 °FPassing clouds.No wind93%29.36 "HgN/A
Weather by CustomWeather, © 2014

See weather overviewHow to use our weather pages